Simultaneous Nadir Overpasses (SNOs) Predictions

Prediction of SNOs between METOP-B and NOAA-19 Satellite Orbit:

Table of predicted SNOs for the next 14.0 days since TLE Epoch: 10/10/2020
Index Date (METOP-B) Time (METOP-B) Lat,Lon (METOP-B) SZA (METOP-B ) Date (NOAA-19) Time (NOAA-19) Lat,Lon (NOAA-19) SZA (NOAA-19 ) Distance(km) Time Diff (sec)
1 10/10/2020 05:27:41 80.21, 122.74 88.12 10/10/2020 05:26:32 80.20, 122.85 88.09 2.70 69
2 10/10/2020 06:18:23 -80.20, -70.06 91.89 10/10/2020 06:17:30 -80.21, -70.07 91.91 0.84 53
3 10/10/2020 07:09:03 80.20, 97.28 88.13 10/10/2020 07:08:33 80.21, 97.19 88.11 1.90 30
4 10/10/2020 07:59:45 -80.19, -95.51 91.89 10/10/2020 07:59:30 -80.20, -95.40 91.88 2.18 15
5 10/10/2020 08:50:25 80.19, 71.82 88.13 10/10/2020 08:50:33 80.20, 71.85 88.14 0.79 8
6 10/10/2020 09:41:06 -80.21,-120.66 91.83 10/10/2020 09:41:30 -80.19,-120.74 91.84 2.77 24
7 10/10/2020 10:31:47 80.18, 46.37 88.14 10/10/2020 10:32:33 80.19, 46.51 88.17 2.84 46
8 10/10/2020 11:22:28 -80.20,-146.12 91.82 10/10/2020 11:23:30 -80.18,-146.07 91.81 2.56 62
9 10/21/2020 07:31:52 -80.22, -88.21 87.77 10/21/2020 07:30:46 -80.23, -88.22 87.79 0.77 66
10 10/21/2020 08:22:32 80.21, 79.05 92.24 10/21/2020 08:21:46 80.23, 79.04 92.23 1.53 46
11 10/21/2020 09:13:14 -80.21,-113.66 87.76 10/21/2020 09:12:46 -80.22,-113.55 87.76 2.29 28
12 10/21/2020 10:03:54 80.20, 53.59 92.24 10/21/2020 10:03:46 80.22, 53.70 92.26 2.60 8
13 10/21/2020 10:54:35 -80.23,-138.81 87.71 10/21/2020 10:54:46 -80.21,-138.88 87.73 2.68 11
14 10/21/2020 11:45:15 80.22, 28.44 92.30 10/21/2020 11:45:46 80.21, 28.36 92.29 2.11 31
15 10/21/2020 12:35:57 -80.22,-164.27 87.70 10/21/2020 12:36:46 -80.20,-164.22 87.70 2.56 49
